Location: Unspecified
(0.0000°N, 0.0000°E)
Time: 01:49:11
(UTC+00:00)

STARS - Pass Details

Date: 16 December 2017
Orbit: 625 x 641 km, 98.3° (Epoch: 17 January)

Event Time Altitude Azimuth Distance (km) Brightness Sun altitude
Rises 05:09:23 0° 154° (SSE) 2,943 ? -10.6°
Reaches altitude 10° 05:11:44 10° 146° (SE) 2,030 ? -10.1°
Maximum altitude 05:15:49 37° 78° (ENE) 986 ? -9.1°
Drops below altitude 10° 05:19:52 10° 10° (N) 2,014 ? -8.2°
Sets 05:22:11 0° 2° (N) 2,917 ? -7.7°
